Date String (YYYY-MM-DD hh:mm:ss) UTC,Instrument flags,Ambient pressure (hPa),Sample flow (lpm),Bypass flow (lpm),Sample temperature (°C),Ambient temperature (°C),ASC tube jacket temperature (°C),LED temperature (°C),Box temperature (°C),Sample RH (%),Span deviation,Mass concentration (μg/m³),Mass concentration (μg/m³),Mass concentration (μg/m³)
DateTimeUTC,F1_M11,P_M11,Q1_M11,Q2_M11,T1_M11,T2_M11,T3_M11,T4_M11,T5_M11,U1_M11,ZSPAN_M11,X0_M11,X2_M11,X1_M11
2022-10-16 02:00:00,,0832.4,5.00,0.00,30.1,28.6,00.0,39.0,31.9,16.7,0000.0,0014.40,0004.75,0003.89
2022-10-16 02:01:00,,0832.5,5.00,0.00,30.1,28.6,00.0,39.0,32.0,16.6,0000.0,0014.25,0004.80,0003.92
2022-10-16 02:02:00,,0832.5,5.00,0.00,30.1,28.7,00.0,39.0,31.9,16.6,0000.0,0013.89,0004.87,0003.95
2022-10-16 02:03:00,,0832.5,5.00,0.00,30.2,28.7,00.0,39.0,32.0,16.6,0000.0,0012.32,0004.90,0003.97
2022-10-16 02:04:00,,0832.5,5.00,0.00,30.2,28.7,00.0,39.0,32.0,16.6,0000.0,0011.80,0004.93,0004.00
2022-10-16 02:05:00,,0832.6,4.99,0.00,30.1,28.7,00.0,39.0,32.0,16.6,0000.0,0011.14,0004.95,0004.02
2022-10-16 02:06:00,,0832.6,4.99,0.00,30.2,28.7,00.0,39.0,32.0,16.6,0000.0,0011.31,0004.93,0004.02
2022-10-16 02:07:00,,0832.6,5.00,0.00,30.2,28.7,00.0,39.0,32.0,16.6,0000.0,0011.45,0004.91,0004.02
2022-10-16 02:08:00,,0832.6,4.99,0.00,30.2,28.7,00.0,39.0,32.0,16.6,0000.0,0011.83,0004.93,0004.03
2022-10-16 02:09:00,,0832.6,5.01,0.00,30.2,28.7,00.0,39.0,32.0,16.6,0000.0,0011.83,0004.91,0004.03
2022-10-16 02:10:00,,0832.7,5.01,0.00,30.2,28.7,00.0,39.0,32.0,16.5,0000.0,0012.35,0004.96,0004.03
2022-10-16 02:11:00,,0832.7,4.99,0.00,30.2,28.7,00.0,39.0,32.0,16.5,0000.0,0012.00,0004.94,0004.02
2022-10-16 02:12:00,,0832.6,4.99,0.00,30.2,28.7,00.0,39.0,32.0,16.5,0000.0,0011.43,0004.87,0004.01
2022-10-16 02:13:00,,0832.7,5.02,0.00,30.2,28.7,00.0,39.0,32.0,16.5,0000.0,0011.26,0004.79,0004.00
2022-10-16 02:14:00,,0832.7,5.00,0.00,30.2,28.7,00.0,39.0,32.0,16.5,0000.0,0011.69,0004.77,0004.00
2022-10-16 02:15:00,,0832.7,4.99,0.00,30.2,28.7,00.0,39.0,32.0,16.5,0000.0,0011.86,0004.77,0003.99
2022-10-16 02:16:00,,0832.7,5.00,0.00,30.2,28.6,00.0,39.0,32.0,16.5,0000.0,0011.84,0004.77,0003.98
2022-10-16 02:17:00,,0832.7,5.00,0.00,30.2,28.6,00.0,39.0,32.0,16.5,0000.0,0011.26,0004.77,0003.98
2022-10-16 02:18:00,,0832.7,5.00,0.00,30.2,28.7,00.0,39.0,32.0,16.5,0000.0,0010.94,0004.80,0003.99
2022-10-16 02:19:00,,0832.7,5.00,0.00,30.2,28.7,00.0,39.0,32.0,16.5,0000.0,0011.49,0004.79,0003.99
2022-10-16 02:20:00,,0832.7,5.00,0.00,30.2,28.7,00.0,39.0,32.0,16.5,0000.0,0011.40,0004.78,0003.97
2022-10-16 02:21:00,,0832.7,5.00,0.00,30.2,28.7,00.0,39.0,32.0,16.5,0000.0,0010.94,0004.73,0003.98
2022-10-16 02:22:00,,0832.7,5.00,0.00,30.2,28.7,00.0,39.0,32.0,16.6,0000.0,0010.71,0004.70,0003.98
2022-10-16 02:23:00,,0832.7,5.01,0.00,30.2,28.8,00.0,39.0,32.0,16.5,0000.0,0010.92,0004.72,0003.98
2022-10-16 02:24:00,,0832.8,5.00,0.00,30.2,28.8,00.0,39.0,32.0,16.5,0000.0,0011.38,0004.73,0003.98
2022-10-16 02:25:00,,0832.7,5.00,0.00,30.2,28.8,00.0,39.0,32.0,16.5,0000.0,0011.05,0004.75,0003.98
2022-10-16 02:26:00,,0832.7,4.99,0.00,30.2,28.8,00.0,39.0,32.0,16.5,0000.0,0011.39,0004.74,0003.98
2022-10-16 02:27:00,,0832.7,5.00,0.00,30.2,28.8,00.0,39.0,32.0,16.5,0000.0,0011.58,0004.75,0003.98
2022-10-16 02:28:00,,0832.8,4.99,0.00,30.2,28.8,00.0,39.0,32.0,16.5,0000.0,0011.57,0004.75,0003.99
2022-10-16 02:29:00,,0832.8,5.00,0.00,30.2,28.8,00.0,39.0,32.0,16.5,0000.0,0011.44,0004.68,0003.98
2022-10-16 02:30:00,,0832.8,5.00,0.00,30.3,28.8,00.0,39.0,32.1,16.5,0000.0,0010.83,0004.65,0003.97
2022-10-16 02:31:00,,0832.8,4.98,0.00,30.3,28.8,00.0,39.0,32.1,16.5,0000.0,0010.32,0004.61,0003.96
2022-10-16 02:32:00,,0832.8,5.00,0.00,30.3,28.8,00.0,39.0,32.1,16.4,0000.0,0010.26,0004.58,0003.95
2022-10-16 02:33:00,,0832.8,5.01,0.00,30.3,28.8,00.0,39.0,32.1,16.4,0000.0,0010.29,0004.58,0003.94
2022-10-16 02:34:00,,0832.7,4.99,0.00,30.3,28.8,00.0,39.1,32.1,16.3,0000.0,0010.46,0004.61,0003.94
2022-10-16 02:35:00,,0832.7,5.00,0.00,30.3,28.8,00.0,39.1,32.1,16.3,0000.0,0010.38,0004.61,0003.95
2022-10-16 02:36:00,,0832.8,5.00,0.00,30.3,28.8,00.0,39.0,32.1,16.3,0000.0,0010.47,0004.58,0003.94
2022-10-16 02:37:00,,0832.8,4.99,0.00,30.3,28.8,00.0,39.0,32.1,16.4,0000.0,0010.39,0004.60,0003.95
2022-10-16 02:38:00,,0832.8,4.99,0.00,30.3,28.8,00.0,39.1,32.1,16.4,0000.0,0009.98,0004.61,0003.96
2022-10-16 02:39:00,,0832.8,4.99,0.00,30.3,28.8,00.0,39.1,32.1,16.4,0000.0,0010.04,0004.62,0003.98
2022-10-16 02:40:00,,0832.8,5.00,0.00,30.3,28.8,00.0,39.1,32.1,16.4,0000.0,0010.14,0004.65,0003.99
2022-10-16 02:41:00,,0832.8,5.00,0.00,30.3,28.8,00.0,39.1,32.1,16.4,0000.0,0009.84,0004.65,0004.00
2022-10-16 02:42:00,,0832.9,5.01,0.00,30.3,28.8,00.0,39.1,32.1,16.4,0000.0,0009.76,0004.66,0004.03
2022-10-16 02:43:00,,0832.8,5.01,0.00,30.3,28.8,00.0,39.1,32.1,16.4,0000.0,0009.66,0004.67,0004.05
2022-10-16 02:44:00,,0832.8,5.00,0.00,30.3,28.8,00.0,39.1,32.1,16.4,0000.0,0009.91,0004.71,0004.08
2022-10-16 02:45:00,,0832.8,5.00,0.00,30.3,28.8,00.0,39.1,32.1,16.4,0000.0,0010.44,0004.71,0004.08
2022-10-16 02:46:00,,0832.8,4.99,0.00,30.3,28.8,00.0,39.1,32.1,16.4,0000.0,0009.94,0004.72,0004.09
2022-10-16 02:47:00,,0832.8,5.00,0.00,30.3,28.9,00.0,39.1,32.1,16.4,0000.0,0009.69,0004.75,0004.12
2022-10-16 02:48:00,,0832.8,5.00,0.00,30.3,28.9,00.0,39.1,32.1,16.4,0000.0,0009.49,0004.75,0004.14
2022-10-16 02:49:00,,0832.8,5.00,0.00,30.3,28.9,00.0,39.1,32.1,16.5,0000.0,0009.58,0004.72,0004.14
2022-10-16 02:50:00,,0832.8,4.99,0.00,30.3,28.8,00.0,39.1,32.1,16.5,0000.0,0009.70,0004.72,0004.13
2022-10-16 02:51:00,,0832.8,4.99,0.00,30.3,28.8,00.0,39.1,32.1,16.5,0000.0,0009.60,0004.71,0004.13
2022-10-16 02:52:00,,0832.8,5.00,0.00,30.3,28.8,00.0,39.1,32.1,16.4,0000.0,0009.60,0004.72,0004.13
2022-10-16 02:53:00,,0832.9,5.01,0.00,30.3,28.9,00.0,39.1,32.1,16.4,0000.0,0009.74,0004.74,0004.13
2022-10-16 02:54:00,,0832.9,5.00,0.00,30.3,28.9,00.0,39.1,32.1,16.4,0000.0,0010.23,0004.75,0004.12
2022-10-16 02:55:00,,0833.0,5.00,0.00,30.3,28.9,00.0,39.1,32.1,16.4,0000.0,0010.22,0004.74,0004.13
2022-10-16 02:56:00,,0833.0,5.02,0.00,30.3,28.9,00.0,39.1,32.1,16.4,0000.0,0009.43,0004.75,0004.14
2022-10-16 02:57:00,,0833.0,4.99,0.00,30.3,28.9,00.0,39.1,32.1,16.4,0000.0,0009.64,0004.77,0004.16
2022-10-16 02:58:00,,0833.0,4.99,0.00,30.3,28.9,00.0,39.1,32.1,16.4,0000.0,0009.77,0004.78,0004.17
2022-10-16 02:59:00,,0833.1,5.02,0.00,30.3,28.9,00.0,39.1,32.1,16.4,0000.0,0010.52,0004.84,0004.18
